Afton Municipal Airport, WY

2:09 PM MST on November 14, 2019 (GMT -0700)
Afton Municipal

Weather History for KAFO - September, 2019

Change the Weather History Date:

Sunday, September 8, 2019

  Actual Average Record
Temperature  
Mean Temperature 50 °F -  
Max Temperature 60 °F 75 °F 80 °F (2018)
Min Temperature 41 °F 35 °F 26 °F (2015)
Degree Days  
Heating Degree Days 14    
Moisture  
Dew Point 43 °F    
Average Humidity 82    
Maximum Humidity 100    
Minimum Humidity 45    
Precipitation  
Precipitation 0.00 in - - ()
Sea Level Pressure  
Sea Level Pressure 30.00 in    
Wind  
Wind Speed 4 mph ()    
Max Wind Speed 29 mph    
Max Gust Speed 36 mph    
Visibility 9.7 miles    
Events Rain , Thunderstorm    
Averages and records for this station are not official NWS values.
T = Trace of Precipitation, MM = Missing Value Source: Averaged Metar Reports

Daily Weather History Graph

Daily Weather History Graph

Search for Another Location

Airport or City:

Astronomy

Sep. 08, 2019 Rise Set
Actual Time 6:55 AM MDT 7:46 PM MDT
Civil Twilight 6:27 AM MDT 8:14 PM MDT
Nautical Twilight 5:53 AM MDT 8:48 PM MDT
Astronomical Twilight 5:17 AM MDT 9:24 PM MDT
Moon 5:04 PM MDT (9/8) 1:31 AM MDT (9/8)
Length of Visible Light 13h 47m
Length of Day
12h 50m
Waxing Gibbous, 75% of the Moon is Illuminated
Sep 8
Waxing Gibbous
Sep 13
Full
Sep 21
Last Quarter
Sep 28
New
Oct 5
First Quarter

Hourly Weather History & Observations

Time (MDT) Temp. Windchill Dew Point Humidity Pressure Visibility Wind Dir Wind Speed Gust Speed Precip Events Conditions
12:15 AM 48.2 °F - 39.2 °F 71% 30.09 in 10.0 mi North - - N/A   Clear
12:35 AM 46.4 °F 45.2 °F 37.4 °F 71% 30.08 in 10.0 mi South 3.5 mph - N/A   Clear
12:55 AM 44.6 °F 41.4 °F 39.2 °F 81% 30.09 in 10.0 mi SSW 5.8 mph - N/A   Clear
1:15 AM 44.6 °F 43.1 °F 39.2 °F 81% 30.08 in 10.0 mi SW 3.5 mph - N/A   Clear
1:35 AM 44.6 °F 41.4 °F 41.0 °F 87% 30.08 in 10.0 mi South 5.8 mph - N/A   Clear
1:55 AM 44.6 °F 43.1 °F 41.0 °F 87% 30.07 in 10.0 mi SSE 3.5 mph - N/A   Clear
2:15 AM 46.4 °F - 41.0 °F 81% 30.06 in 10.0 mi Calm Calm - N/A   Clear
2:35 AM 44.6 °F - 39.2 °F 81% 30.06 in 10.0 mi Calm Calm - N/A   Clear
2:55 AM 42.8 °F - 37.4 °F 81% 30.05 in 10.0 mi Calm Calm - N/A   Clear
3:15 AM 41.0 °F 39.0 °F 37.4 °F 87% 30.04 in 10.0 mi South 3.5 mph - N/A   Clear
3:35 AM 41.0 °F 38.0 °F 37.4 °F 87% 30.03 in 10.0 mi South 4.6 mph - N/A   Clear
3:55 AM 42.8 °F 41.1 °F 39.2 °F 87% 30.02 in 10.0 mi South 3.5 mph - N/A   Clear
4:15 AM 44.6 °F - 39.2 °F 81% 30.01 in 10.0 mi Calm Calm - N/A   Clear
4:35 AM 42.8 °F - 39.2 °F 87% 30.02 in 10.0 mi Calm Calm - N/A   Clear
4:55 AM 42.8 °F 41.1 °F 41.0 °F 93% 30.02 in 10.0 mi NW 3.5 mph - N/A   Scattered Clouds
5:15 AM 42.8 °F - 41.0 °F 93% 30.05 in 10.0 mi Calm Calm - N/A   Mostly Cloudy
5:35 AM 44.6 °F - 41.0 °F 87% 30.06 in 10.0 mi Calm Calm - N/A   Light Drizzle
5:55 AM 44.6 °F 40.7 °F 41.0 °F 87% 30.07 in 10.0 mi NW 6.9 mph - N/A Rain Light Rain
6:15 AM 44.6 °F 37.8 °F 42.8 °F 93% 29.99 in 10.0 mi NNE 15.0 mph - N/A Rain Light Rain
6:35 AM 42.8 °F 37.5 °F 41.0 °F 93% 30.05 in 10.0 mi WNW 9.2 mph - N/A   Overcast
6:55 AM 44.6 °F 39.7 °F 42.8 °F 93% 30.06 in 10.0 mi ESE 9.2 mph - N/A   Overcast
7:15 AM 44.6 °F 41.4 °F 42.8 °F 93% 30.04 in 10.0 mi NW 5.8 mph - N/A Rain Light Rain
7:35 AM 44.6 °F 43.1 °F 42.8 °F 93% 30.05 in 10.0 mi South 3.5 mph - N/A   Scattered Clouds
7:55 AM 44.6 °F 43.1 °F 42.8 °F 93% 30.04 in 7.0 mi East 3.5 mph - N/A Rain Light Rain
8:15 AM 44.6 °F 40.7 °F 44.6 °F 100% 30.04 in 10.0 mi WSW 6.9 mph - N/A   Overcast
8:35 AM 46.4 °F - 44.6 °F 93% 30.00 in 10.0 mi Calm Calm - N/A Rain Light Rain
8:55 AM 48.2 °F - 44.6 °F 87% 29.99 in 10.0 mi West 5.8 mph - N/A   Scattered Clouds
9:15 AM 50.0 °F - 44.6 °F 82% 29.99 in 10.0 mi Calm Calm - N/A   Clear
9:35 AM 50.0 °F - 42.8 °F 76% 29.99 in 10.0 mi Calm Calm - N/A   Mostly Cloudy
9:55 AM 51.8 °F - 44.6 °F 76% 29.99 in 10.0 mi Calm Calm - N/A   Mostly Cloudy
10:15 AM 51.8 °F - 44.6 °F 76% 30.00 in 10.0 mi Calm Calm - N/A   Overcast
10:35 AM 51.8 °F - 44.6 °F 76% 30.00 in 10.0 mi Calm Calm - N/A   Overcast
10:55 AM 53.6 °F - 44.6 °F 72% 30.00 in 10.0 mi Calm Calm - N/A Rain Light Rain
11:15 AM 51.8 °F - 46.4 °F 82% 30.02 in 10.0 mi Calm Calm - N/A Rain Light Rain
11:35 AM 51.8 °F - 46.4 °F 82% 30.03 in 5.0 mi Calm Calm - N/A Rain Heavy Rain
11:55 AM 50.0 °F - 48.2 °F 94% 30.03 in 2.5 mi East 6.9 mph - N/A Rain Rain
12:15 PM 51.8 °F - 48.2 °F 88% 30.02 in 10.0 mi SE 6.9 mph - N/A Rain Light Rain
12:35 PM 53.6 °F - 46.4 °F 77% 30.03 in 10.0 mi South 16.1 mph 27.6 mph N/A   Light Drizzle
12:55 PM 51.8 °F - 44.6 °F 76% 30.01 in 10.0 mi ESE 18.4 mph 29.9 mph N/A Rain Rain
1:15 PM 53.6 °F - 42.8 °F 67% 29.94 in 10.0 mi East 11.5 mph 23.0 mph N/A   Overcast
1:35 PM 59.0 °F - 37.4 °F 45% 29.92 in 10.0 mi SSW 28.8 mph 35.7 mph N/A   Overcast
1:55 PM 53.6 °F - 44.6 °F 72% 29.93 in 10.0 mi South 10.4 mph - N/A   Scattered Clouds
2:15 PM 55.4 °F - 46.4 °F 72% 29.93 in 10.0 mi SSW 9.2 mph - N/A   Clear
2:35 PM 55.4 °F - 44.6 °F 67% 29.93 in 10.0 mi SSE 6.9 mph - N/A   Clear
2:55 PM 57.2 °F - 44.6 °F 63% 29.92 in 10.0 mi SW 3.5 mph - N/A   Clear
3:15 PM 59.0 °F - 44.6 °F 59% 29.92 in 10.0 mi Calm Calm - N/A Thunderstorm Thunderstorm
3:35 PM 60.8 °F - 44.6 °F 55% 29.92 in 10.0 mi Calm Calm - N/A   Mostly Cloudy
3:55 PM 59.0 °F - 46.4 °F 63% 29.92 in 10.0 mi NNW 4.6 mph - N/A Thunderstorm Thunderstorm
4:15 PM 51.8 °F - 44.6 °F 76% 29.95 in 10.0 mi West 12.7 mph 24.2 mph N/A Rain Light Rain
4:35 PM 50.0 °F - 46.4 °F 87% 29.98 in 7.0 mi SE 8.1 mph - N/A Rain , Thunderstorm Rain
4:55 PM 50.0 °F - 46.4 °F 87% 30.00 in 10.0 mi ESE 8.1 mph - N/A Rain , Thunderstorm Light Thunderstorms and Rain
5:15 PM 50.0 °F - 44.6 °F 82% 29.95 in 10.0 mi NNE 8.1 mph - N/A Rain Light Rain
5:35 PM 51.8 °F - 46.4 °F 82% 29.95 in 10.0 mi Calm Calm - N/A   Overcast
5:55 PM 53.6 °F - 46.4 °F 77% 29.96 in 10.0 mi South 5.8 mph - N/A   Scattered Clouds
6:15 PM 53.6 °F - 46.4 °F 77% 29.96 in 10.0 mi South 8.1 mph - N/A   Scattered Clouds
6:35 PM 53.6 °F - 46.4 °F 77% 29.96 in 10.0 mi South 5.8 mph - N/A   Overcast
6:55 PM 51.8 °F - 46.4 °F 82% 29.95 in 10.0 mi SSW 5.8 mph - N/A   Mostly Cloudy
7:15 PM 51.8 °F - 46.4 °F 82% 29.95 in 10.0 mi WSW 3.5 mph - N/A Thunderstorm Overcast
7:35 PM 51.8 °F - 46.4 °F 82% 29.96 in 10.0 mi Calm Calm - N/A   Overcast
7:55 PM 51.8 °F - 48.2 °F 88% 29.97 in 10.0 mi Calm Calm - N/A   Overcast
8:15 PM 51.8 °F - 48.2 °F 88% 29.97 in 10.0 mi SSW 5.8 mph - N/A   Overcast
8:55 PM 46.4 °F 41.1 °F 42.8 °F 87% 29.99 in 10.0 mi SSE 11.5 mph - N/A Rain Light Rain
9:15 PM 46.4 °F 42.9 °F 42.8 °F 87% 30.00 in 10.0 mi SSW 6.9 mph - N/A   Scattered Clouds
9:35 PM 46.4 °F 41.1 °F 42.8 °F 87% 29.99 in 10.0 mi South 11.5 mph - N/A   Scattered Clouds
9:55 PM 46.4 °F 43.5 °F 42.8 °F 87% 29.99 in 10.0 mi South 5.8 mph - N/A   Scattered Clouds
10:15 PM 46.4 °F 41.9 °F 42.8 °F 87% 29.99 in 10.0 mi South 9.2 mph - N/A   Clear
10:35 PM 44.6 °F 40.2 °F 42.8 °F 93% 29.99 in 10.0 mi South 8.1 mph - N/A   Clear
10:55 PM 44.6 °F 40.2 °F 42.8 °F 93% 30.00 in 10.0 mi SSW 8.1 mph - N/A   Clear
11:15 PM 44.6 °F 41.4 °F 42.8 °F 93% 30.00 in 10.0 mi SSW 5.8 mph - N/A   Scattered Clouds
11:35 PM 44.6 °F 40.2 °F 42.8 °F 93% 30.01 in 10.0 mi SW 8.1 mph - N/A   Mostly Cloudy
11:55 PM 44.6 °F 42.2 °F 42.8 °F 93% 30.01 in 10.0 mi South 4.6 mph - N/A   Overcast